STARLINK-1137 (45092 NORAD) Tracking and Keplerian Element Data

This shows tracking and keplerian element data for the satellite.

Feedback or suggestion? Click here.




ElementValue
Catalog45092
NameSTARLINK-1137
Epoch Orbit175
Epoch Day196.91667824
Epoch Year2020
RAAN151.2773
Inclination52.9958
Eccentricity0.0001428
Argument of Perigee85.8256
Mean Anonmoly245.3926
Mean Motion15.05588034
Decay Rate-2.708E-05
L11 45092U 20006BA 20196.91667824 -.00002708 00000-0 -16670-3 0 9991
L22 45092 52.9958 151.2773 0001428 85.8256 245.3926 15.05588034 1758

Live tracking and technical data element details for STARLINK-1137 (NORAD 45092). STARLINK-1137 can be tracked NOW for your location showing map with azimuth and elevation plus other details from your city location.

Track the satellite on the map from your city or location and see movement details for azimuth, elevation, latitude, longitude, range, height, and movement on the map or in text.







IsCatalogInMostPopularTable: catalog: 45092, numindb: 27
Update: records affected: 1



GetName: 45092 STARLINK-1137

Hit Count: updated at: Thu, 16 Jul 2020 03:17:30 GMT